Regional Weather Roundup
Issued by NWS

Home | Current Version | Previous Version | Graphics & Text | Print | Product List | Glossary On
Versions: 1 2 3 4 5 6 7 8 9 10 11 12 13 14 15 16 17 18 19 20 21 22 23 24 25 26 27
000
ASUS45 KBOU 270107
RWRCO

WEATHER ROUNDUP FOR COLORADO
NATIONAL WEATHER SERVICE DENVER/BOULDER CO
700 PM MDT MON JUN 26 2017

NOTE: "FAIR" INDICATES FEW OR NO CLOUDS BELOW 12000 FEET WITH NO
SIGNIFICANT WEATHER AND/OR OBSTRUCTIONS TO VISIBILITY.

COZ001>005-013-030-031-270200-
...NORTHWEST COLORADO...

CITY           SKY/WX    TMP DP  RH WIND       PRES   REMARKS
CRAIG          FAIR      85  19   9 NW7       30.10F
HAYDEN         FAIR      82  25  12 NW3       30.15S
MEEKER         FAIR      81  37  20 S8        30.12F
RABBIT EARS PA FAIR      63  23  22 NW6       30.50S
STEAMBOAT SPGS FAIR      82  28  14 CALM      30.18S
WALDEN         FAIR      75  27  16 NW6       30.29S
$$

COZ006>008-011-270200-
...WEST CENTRAL VALLEYS...

CITY           SKY/WX    TMP DP  RH WIND       PRES   REMARKS
GRAND JUNCTION FAIR      96  12   4 NW14      29.96F
MONTROSE       FAIR      88  28  11 W9        30.07S
EAGLE            N/A     84  25  11 W10       30.16
RIFLE          FAIR      88  27  11 N7        30.05F
DELTA          FAIR      96  20   6 W6        30.00F
NUCLA          FAIR      90  21   8 NW3       30.12F
$$

COZ017>023-064>068-270200-
...SOUTHWEST COLORADO...

CITY           SKY/WX    TMP DP  RH WIND       PRES   REMARKS
DURANGO        FAIR      81  29  15 NE10      30.19F
CORTEZ         FAIR      90  24   9 MISG      30.10F
PAGOSA SPRINGS FAIR      77  22  13 S8        30.30S
TELLURIDE      FAIR      71  28  20 CALM      30.42F
WOLF CREEK PAS FAIR      50  28  43 SW20G25   30.64F
$$

COZ009-010-012-014-032>034-037-058>063-270200-
...CENTRAL COLORADO...

CITY           SKY/WX    TMP DP  RH WIND       PRES   REMARKS
ASPEN          FAIR      80  19  10 N10       30.25R
BUENA VISTA    FAIR      75  25  15 SE12G18   30.26R
COPPER MTN     FAIR      63   5  10 W7        30.62S
BERTHOUD PASS  FAIR      46  32  57 MISG      30.66S
COTTONWOOD PAS FAIR      72  19  14 SE12      30.42R
GUNNISON       FAIR      79  28  15 N13       30.23F
KREMMLING      NOT AVBL
LEADVILLE      FAIR      68  11  11 N9        30.41S
MONARCH PASS   DRIZZLE   52  27  37 N12G32    30.75R
SALIDA         FAIR      75  34  22 SE22G29   30.31R
SUNLIGHT       FAIR      61  21  21 NW7       30.54S
WILKERSON PASS CLOUDY    54  30  40 E3        30.59R
$$

COZ069>075-270200-
...SAN LUIS VALLEY/SANGRE DE CRISTO MOUNTAINS...

CITY           SKY/WX    TMP DP  RH WIND       PRES   REMARKS
ALAMOSA        PTSUNNY   68  37  32 SW12      30.29F
DEL NORTE      FAIR      66  43  42 CALM      30.31F
LA VETA PASS   FAIR      46  39  76 S20G31    30.61F
SAGUACHE       FAIR      75  34  22 SW13      30.28R
$$

COZ035-036-038>040-270200-
...NORTHERN COLORADO FRONT RANGE...

CITY           SKY/WX    TMP DP  RH WIND       PRES   REMARKS
DENVER INTL AP FAIR      85  39  19 E15       30.11S
DMNS CITY PARK   N/A     84  38  19 E10G21    30.10F
AURORA         MOSUNNY   81  39  22 E9        30.14R
FRONT RANGE AP FAIR      84  36  17 E13G22    30.14R
ERIE MUNI ARPT FAIR      84  36  18 E8        30.09S
BOULDER MUN AP FAIR      82  43  24 NE5       30.10F
CENTENNIAL     FAIR      83  35  18 E9        30.14S
BROOMFIELD     FAIR      84  37  18 NE12      30.13F
FORT COLLINS   FAIR      83  45  26 S9        30.10S
LONGMONT       FAIR      88  40  19 NE7       30.11S
$$

COZ041-046-047-076>085-087-088-270200-
...PIKES PEAK/PALMER DIVIDE AND SOUTHERN FOOTHILLS...

CITY           SKY/WX    TMP DP  RH WIND       PRES   REMARKS
COLO. SPRINGS  PTSUNNY   75  49  39 SW6       30.18S
A. F. ACADEMY  PTSUNNY   73  46  37 S3        30.20S
SCHRIEVER AFB  PTSUNNY   74  46  36 S7        30.18F
CHEYENNE MTN   PTSUNNY   72  41  32 W9G22     30.18S
ELLICOTT       FAIR     N/A N/A N/A S15       30.17S
FALCON           N/A     75  43  31 S16       30.24F
FORT CARSON    PTSUNNY   75  37  25 SW20      30.15S
LIMON          FAIR      80  46  30 SE16G24   30.14S
MONUMENT HILL  FAIR      77  32  19 E10       30.25S
CANON CITY     SUNNY     75  52  43 MISG      30.16R
WALSENBURG     FAIR      75  41  29 W16G22    30.21R
TRINIDAD       FAIR      78  48  34 W18       30.16S
$$

COZ042>045-048>051-090-091-270200-
...NORTHEAST COLORADO...

CITY           SKY/WX    TMP DP  RH WIND       PRES   REMARKS
GREELEY ARPT   FAIR      82  49  31 SE8       30.08S
AKRON          FAIR      77  53  43 E20G26    30.11F
BURLINGTON     FAIR      74  59  59 E23       30.10S
WRAY           FAIR      77  57  50 E16G22    30.10S
YUMA           FAIR      73  59  60 E18       30.11R
STERLING       FAIR      81  55  41 SE12G17   30.06F
HOLYOKE        NOT AVBL
FORT MORGAN    FAIR      81  51  34 E15G28    30.09S
$$

COZ086-089-092>099-270200-
...SOUTHEAST COLORADO...

CITY           SKY/WX    TMP DP  RH WIND       PRES   REMARKS
PUEBLO         CLOUDY    72  49  44 S37G48    30.04F
LA JUNTA       FAIR      86  53  32 E7        30.05R
LAMAR          FAIR      83  57  41 E13       30.02R
SPRINGFIELD      N/A     70  56  61 S12       30.09F
$$




USA.gov is the U.S. government's official web portal to all federal, state and local government web resources and services.